Weather History for Cape Girardeau, MO

Change the Weather History Date:

Sunday, October 20, 2013

  Actual Average Record
Temperature  
Mean Temperature 52 °F 56 °F  
Max Temperature 66 °F 69 °F 89 °F (1963)
Min Temperature 37 °F 44 °F 30 °F (1960)
Degree Days  
Heating Degree Days 13 9  
Month to date heating degree days 96 138  
Since 1 July heating degree days 107 187  
Cooling Degree Days 0 1  
Month to date cooling degree days 44 27  
Year to date cooling degree days 1437 1449  
Growing Degree Days 2 (Base 50)    
Moisture  
Dew Point 41 °F    
Average Humidity 71    
Maximum Humidity 100    
Minimum Humidity 42    
Precipitation  
Precipitation 0.00 in 0.13 in 3.16 in (1984)
Month to date precipitation 2.55 2.38  
Year to date precipitation 31.22 36.71  
Sea Level Pressure  
Sea Level Pressure 30.02 in    
Wind  
Wind Speed 6 mph (SSW)    
Max Wind Speed 17 mph    
Max Gust Speed 23 mph    
Visibility 10 miles    
Events      
T = Trace of Precipitation, MM = Missing Value Source: NWS Daily Summary

Daily Weather History Graph

Daily Weather History Graph

Search for Another Location

Airport:

Trip Planner

Search our weather history database for the weather conditions in past years. The results will help you decide how hot, cold, wet, or windy it might be!

Date:

Astronomy

Oct. 20, 2013 Rise Set
Actual Time 7:11 AM CDT 6:14 PM CDT
Civil Twilight 6:44 AM CDT 6:40 PM CDT
Nautical Twilight 6:14 AM CDT 7:11 PM CDT
Astronomical Twilight 5:44 AM CDT 7:41 PM CDT
Moon 7:25 PM CDT (10/20) 8:46 AM CDT (10/20)
Length of Visible Light 11h 56m
Length of Day
11h 03m
Full, 97% of the Moon is Illuminated
Oct 20
Full
Oct 26
Last Quarter
Nov 3
New
Nov 9
First Quarter
Nov 17
Full

Hourly Weather History & Observations

Time (CDT) Temp. Windchill Dew Point Humidity Pressure Visibility Wind Dir Wind Speed Gust Speed Precip Events Conditions
12:53 AM 41.0 °F - 37.9 °F 89% 30.04 in 10.0 mi Calm Calm - N/A   Clear
1:53 AM 39.0 °F - 37.0 °F 93% 30.04 in 10.0 mi Calm Calm - N/A   Clear
2:53 AM 39.9 °F - 37.0 °F 89% 30.02 in 10.0 mi Calm Calm - N/A   Clear
3:53 AM 39.0 °F - 37.0 °F 93% 30.01 in 10.0 mi Calm Calm - N/A   Clear
4:53 AM 37.9 °F 35.5 °F 37.0 °F 97% 30.02 in 10.0 mi SE 3.5 mph - N/A   Clear
5:53 AM 39.9 °F - 37.9 °F 93% 30.04 in 10.0 mi Calm Calm - N/A   Clear
6:53 AM 39.9 °F - 37.0 °F 89% 30.04 in 10.0 mi Calm Calm - N/A   Clear
7:53 AM 43.0 °F - 39.0 °F 86% 30.05 in 10.0 mi Calm Calm - N/A   Clear
8:53 AM 48.9 °F - 42.1 °F 77% 30.07 in 10.0 mi South 4.6 mph - N/A   Clear
9:53 AM 54.0 °F - 41.0 °F 62% 30.07 in 10.0 mi SSW 8.1 mph - N/A   Clear
10:53 AM 59.0 °F - 43.0 °F 55% 30.07 in 10.0 mi SW 9.2 mph - N/A   Clear
11:53 AM 61.0 °F - 42.1 °F 50% 30.05 in 10.0 mi SSW 11.5 mph 21.9 mph N/A   Clear
12:53 PM 64.0 °F - 43.0 °F 46% 30.03 in 10.0 mi South 15.0 mph 20.7 mph N/A   Clear
1:53 PM 64.9 °F - 44.1 °F 47% 30.01 in 10.0 mi SSW 10.4 mph 23.0 mph N/A   Clear
2:53 PM 66.0 °F - 43.0 °F 43% 29.99 in 10.0 mi SSW 12.7 mph 21.9 mph N/A   Clear
3:53 PM 64.9 °F - 42.1 °F 43% 29.98 in 10.0 mi SSW 10.4 mph 20.7 mph N/A   Clear
4:53 PM 64.0 °F - 42.1 °F 45% 29.98 in 10.0 mi South 11.5 mph - N/A   Clear
5:53 PM 61.0 °F - 43.0 °F 52% 29.97 in 10.0 mi South 8.1 mph - N/A   Clear
6:53 PM 53.1 °F - 44.1 °F 71% 29.98 in 10.0 mi South 5.8 mph - N/A   Clear
7:53 PM 53.1 °F - 43.0 °F 69% 29.99 in 10.0 mi South 5.8 mph - N/A   Clear
8:53 PM 50.0 °F - 42.1 °F 74% 29.99 in 10.0 mi South 5.8 mph - N/A   Clear
9:53 PM 48.9 °F - 42.1 °F 77% 30.00 in 10.0 mi South 5.8 mph - N/A   Clear
10:53 PM 51.1 °F - 42.1 °F 71% 29.99 in 10.0 mi South 4.6 mph - N/A   Clear
11:53 PM 51.1 °F - 42.1 °F 71% 30.00 in 10.0 mi SSW 3.5 mph - N/A   Clear